sat.trackr.live / text

‹ back to catalog

KUIPER-00168

NORAD 65781 · 2025-217V

PAYLOAD ACTIVE UNKNOWN

§ Identity

Operator
Country
US
Launch date
2025-09-25
Launch site
AFETR
Launch vehicle
Mass (kg)
RCS (m²)

External: N2YO · Heavens-Above · Gunter

§ Orbital elements

Epoch: 2026-09-20T16:36:16.967520Z

Period
97.30 min
Inclination
51.9009°
Eccentricity
0.0000918
Mean motion
14.79932704 rev/d
Perigee alt
628.9 km
Apogee alt
630.2 km
Semi-major
7,007.7 km
B*
7.9540e-5
RAAN
245.8106°
Arg perigee
79.7446°
Mean anomaly
280.3620°
Rev number
5,396

§ Raw data

KUIPER-001681 65781U 25217V   26263.69186305  .00000385  00000+0  79540-4 0  99952 65781  51.9009 245.8106 0000918  79.7446 280.3620 14.79932704 53964

JSON: /api/v1/satellites/65781 · /tle

For live sub-satellite position, see the globe view (requires WebGL).

§ Visibility from observer

Set your observer location to see the next 7 days of passes ≥ 10°. The values pass through the URL so the page stays shareable.

No JS? Fill the form by hand. The geolocation button needs JavaScript.